When you browse on this site, cookies collect data to enhance your experience and personalize the content and advertising you see.
Visit our Privacy Policy to learn more. By continuing to use the site, you agree to this use of cookies and data.
  • In Czech Republic
  • List of Countries
  • For 7 days
  • Water Temperature
  • Satellite Maps
  • Weather Map
  • Weather Widgets
  • user-avatar
    Login

    Hourly Weather Perth

    Today, 24 January, Thursday

    Time Temperature Precipitation Wind Pressure Humidity
    00:00 +17°C° 0.1 mm 5 mps 756 mmHg 74%
    01:00 +17°C° 0.1 mm 5 mps 756 mmHg 75%
    02:00 +17°C° 0 mm 5 mps 756 mmHg 75%
    03:00 +17°C° 0.1 mm 5 mps 756 mmHg 75%
    04:00 +17°C° 0.1 mm 5 mps 756 mmHg 76%
    05:00 +17°C° 0.1 mm 5 mps 756 mmHg 76%
    06:00 +17°C° 0.1 mm 5 mps 757 mmHg 74%
    07:00 +19°C° 0.1 mm 5 mps 757 mmHg 72%
    08:00 +19°C° 0.1 mm 5 mps 757 mmHg 70%
    09:00 +20°C° 0 mm 5 mps 758 mmHg 67%
    10:00 +21°C° 0 mm 5 mps 758 mmHg 63%
    11:00 +21°C° 0 mm 5 mps 758 mmHg 59%
    12:00 +22°C° 0 mm 5 mps 758 mmHg 56%
    13:00 +22°C° 0 mm 5 mps 758 mmHg 53%
    14:00 +23°C° 0 mm 5 mps 758 mmHg 51%
    15:00 +23°C° 0 mm 5 mps 758 mmHg 51%
    16:00 +23°C° 0 mm 6 mps 758 mmHg 50%
    17:00 +23°C° 0 mm 6 mps 757 mmHg 50%
    18:00 +21°C° 0 mm 6 mps 758 mmHg 55%
    19:00 +20°C° 0 mm 6 mps 758 mmHg 60%
    20:00 +17°C° 0 mm 5 mps 759 mmHg 65%
    21:00 +17°C° 0 mm 5 mps 759 mmHg 65%
    22:00 +17°C° 0 mm 5 mps 759 mmHg 65%
    23:00 +17°C° 0 mm 4 mps 760 mmHg 65%

    Tomorrow, 25 January, Friday

    Time Temperature Precipitation Wind Pressure Humidity
    00:00 +17°C° 0 mm 4 mps 760 mmHg 65%
    01:00 +15°C° 0 mm 4 mps 760 mmHg 65%
    02:00 +15°C° 0 mm 4 mps 759 mmHg 66%
    03:00 +14°C° 0 mm 4 mps 759 mmHg 67%
    04:00 +14°C° 0 mm 4 mps 759 mmHg 68%
    05:00 +14°C° 0 mm 4 mps 760 mmHg 69%
    06:00 +15°C° 0 mm 4 mps 760 mmHg 64%
    07:00 +17°C° 0 mm 4 mps 760 mmHg 59%
    08:00 +18°C° 0 mm 4 mps 760 mmHg 54%
    09:00 +21°C° 0 mm 3 mps 760 mmHg 46%
    10:00 +24°C° 0 mm 3 mps 760 mmHg 39%
    11:00 +27°C° 0 mm 2 mps 760 mmHg 31%
    12:00 +28°C° 0 mm 3 mps 759 mmHg 30%
    13:00 +29°C° 0 mm 4 mps 759 mmHg 29%
    14:00 +30°C° 0 mm 4 mps 758 mmHg 28%
    15:00 +29°C° 0 mm 5 mps 758 mmHg 33%
    16:00 +28°C° 0 mm 6 mps 758 mmHg 38%
    17:00 +26°C° 0 mm 7 mps 757 mmHg 43%
    18:00 +24°C° 0 mm 6 mps 758 mmHg 51%
    19:00 +22°C° 0 mm 6 mps 758 mmHg 59%
    20:00 +20°C° 0 mm 6 mps 759 mmHg 67%
    21:00 +20°C° 0 mm 6 mps 759 mmHg 66%
    22:00 +20°C° 0 mm 5 mps 759 mmHg 64%
    23:00 +20°C° 0 mm 5 mps 760 mmHg 63%

    Day after tomorrow, 26 January, Saturday

    Time Temperature Precipitation Wind Pressure Humidity
    00:00 +20°C° 0 mm 5 mps 760 mmHg 62%
    01:00 +19°C° 0 mm 5 mps 760 mmHg 62%
    02:00 +19°C° 0 mm 6 mps 759 mmHg 61%
    03:00 +19°C° 0 mm 6 mps 760 mmHg 63%
    04:00 +17°C° 0 mm 5 mps 760 mmHg 65%
    05:00 +17°C° 0 mm 5 mps 760 mmHg 67%
    06:00 +17°C° 0 mm 5 mps 761 mmHg 63%
    07:00 +19°C° 0 mm 6 mps 761 mmHg 60%
    08:00 +20°C° 0 mm 6 mps 762 mmHg 56%
    09:00 +23°C° 0 mm 5 mps 761 mmHg 49%
    10:00 +26°C° 0 mm 5 mps 761 mmHg 41%
    11:00 +29°C° 0 mm 4 mps 761 mmHg 34%
    12:00 +30°C° 0 mm 4 mps 761 mmHg 30%
    13:00 +33°C° 0 mm 4 mps 760 mmHg 26%
    14:00 +34°C° 0 mm 4 mps 759 mmHg 22%
    15:00 +34°C° 0 mm 4 mps 759 mmHg 23%
    16:00 +34°C° 0 mm 5 mps 758 mmHg 23%
    17:00 +34°C° 0 mm 5 mps 758 mmHg 24%
    18:00 +32°C° 0 mm 5 mps 758 mmHg 25%
    19:00 +29°C° 0 mm 4 mps 758 mmHg 27%
    20:00 +28°C° 0 mm 4 mps 759 mmHg 29%
    21:00 +27°C° 0 mm 4 mps 759 mmHg 29%
    22:00 +27°C° 0 mm 5 mps 760 mmHg 28%
    23:00 +27°C° 0 mm 5 mps 760 mmHg 28%

    27 January, Sunday

    Time Temperature Precipitation Wind Pressure Humidity
    00:00 +24°C° 0 mm 6 mps 760 mmHg 34%
    01:00 +23°C° 0 mm 6 mps 760 mmHg 40%
    02:00 +22°C° 0 mm 6 mps 760 mmHg 46%
    03:00 +21°C° 0 mm 6 mps 760 mmHg 49%
    04:00 +20°C° 0 mm 6 mps 760 mmHg 52%
    05:00 +20°C° 0 mm 6 mps 760 mmHg 55%
    06:00 +21°C° 0 mm 6 mps 761 mmHg 51%
    07:00 +22°C° 0 mm 5 mps 761 mmHg 47%
    08:00 +22°C° 0 mm 5 mps 761 mmHg 43%
    09:00 +26°C° 0 mm 5 mps 761 mmHg 37%
    10:00 +29°C° 0 mm 4 mps 760 mmHg 31%
    11:00 +33°C° 0 mm 3 mps 760 mmHg 25%
    12:00 +34°C° 0 mm 3 mps 759 mmHg 23%
    13:00 +36°C° 0 mm 3 mps 758 mmHg 20%
    14:00 +37°C° 0 mm 3 mps 758 mmHg 18%
    15:00 +36°C° 0 mm 4 mps 757 mmHg 19%
    16:00 +36°C° 0 mm 5 mps 757 mmHg 20%
    17:00 +35°C° 0 mm 5 mps 757 mmHg 21%
    18:00 +33°C° 0 mm 5 mps 757 mmHg 26%
    19:00 +29°C° 0 mm 5 mps 757 mmHg 31%
    20:00 +27°C° 0 mm 4 mps 758 mmHg 36%
    21:00 +27°C° 0 mm 4 mps 758 mmHg 33%
    22:00 +26°C° 0 mm 4 mps 759 mmHg 31%
    23:00 +25°C° 0 mm 3 mps 759 mmHg 29%

    28 January, Monday

    Time Temperature Precipitation Wind Pressure Humidity
    00:00 +25°C° 0 mm 3 mps 759 mmHg 30%
    01:00 +25°C° 0 mm 4 mps 758 mmHg 31%
    02:00 +25°C° 0 mm 4 mps 758 mmHg 32%
    03:00 +23°C° 0 mm 4 mps 758 mmHg 36%
    04:00 +22°C° 0 mm 4 mps 758 mmHg 41%
    05:00 +22°C° 0 mm 4 mps 758 mmHg 45%
    06:00 +23°C° 0 mm 4 mps 758 mmHg 43%
    07:00 +25°C° 0 mm 4 mps 758 mmHg 41%
    08:00 +26°C° 0 mm 4 mps 758 mmHg 38%
    09:00 +29°C° 0 mm 3 mps 758 mmHg 32%
    10:00 +34°C° 0 mm 2 mps 758 mmHg 26%
    11:00 +37°C° 0 mm 2 mps 758 mmHg 19%
    12:00 +38°C° 0 mm 2 mps 757 mmHg 18%
    13:00 +39°C° 0 mm 3 mps 756 mmHg 17%
    14:00 +40°C° 0 mm 3 mps 756 mmHg 16%
    15:00 +40°C° 0 mm 4 mps 755 mmHg 17%
    16:00 +39°C° 0 mm 5 mps 755 mmHg 18%
    17:00 +36°C° 0 mm 6 mps 755 mmHg 20%
    18:00 +34°C° 0 mm 5 mps 755 mmHg 22%
    19:00 +32°C° 0 mm 5 mps 755 mmHg 24%
    20:00 +29°C° 0 mm 5 mps 756 mmHg 26%
    21:00 +28°C° 0 mm 4 mps 756 mmHg 28%
    22:00 +28°C° 0 mm 4 mps 756 mmHg 29%
    23:00 +27°C° 0 mm 3 mps 756 mmHg 31%

    29 January, Tuesday

    Time Temperature Precipitation Wind Pressure Humidity
    00:00 +27°C° 0 mm 4 mps 756 mmHg 29%
    01:00 +27°C° 0 mm 4 mps 755 mmHg 28%
    02:00 +27°C° 0 mm 4 mps 755 mmHg 27%
    03:00 +27°C° 0 mm 4 mps 755 mmHg 32%
    04:00 +26°C° 0 mm 4 mps 755 mmHg 36%
    05:00 +26°C° 0 mm 4 mps 755 mmHg 41%
    06:00 +27°C° 0 mm 4 mps 755 mmHg 38%
    07:00 +28°C° 0 mm 4 mps 755 mmHg 35%
    08:00 +30°C° 0 mm 4 mps 755 mmHg 32%
    09:00 +34°C° 0 mm 4 mps 755 mmHg 27%
    10:00 +37°C° 0 mm 3 mps 755 mmHg 21%
    11:00 +40°C° 0 mm 3 mps 754 mmHg 15%
    12:00 +41°C° 0 mm 4 mps 754 mmHg 16%
    13:00 +41°C° 0 mm 5 mps 753 mmHg 16%
    14:00 +41°C° 0 mm 5 mps 753 mmHg 17%
    15:00 +40°C° 0 mm 5 mps 752 mmHg 18%
    16:00 +39°C° 0 mm 5 mps 752 mmHg 19%
    17:00 +37°C° 0 mm 5 mps 752 mmHg 20%
    18:00 +34°C° 0 mm 5 mps 752 mmHg 27%
    19:00 +32°C° 0 mm 4 mps 753 mmHg 34%
    20:00 +28°C° 0 mm 3 mps 753 mmHg 41%
    21:00 +28°C° 0 mm 3 mps 753 mmHg 41%
    22:00 +28°C° 0 mm 4 mps 754 mmHg 41%
    23:00 +27°C° 0 mm 4 mps 754 mmHg 41%
    Show more